Weather Roundup
Issued by NWS Chicago, IL

Home | Current Version | Previous Version | Graphics & Text | Print | Product List | Glossary On
Versions: 1 2 3 4 5 6 7 8 9 10 11 12 13 14 15 16 17 18 19 20 21 22 23 24 25 26 27 28 29 30 31 32 33 34 35 36 37 38 39 40 41 42 43 44 45 46 47 48 49 50
000
NZUS59 KLOT 280500
HRRLOT

CHICAGO AREA WEATHER ROUNDUP
NATIONAL WEATHER SERVICE CHICAGO/ROMEOVILLE IL
1200 AM CDT MON JUL 28 2014

NOTE: "FAIR" INDICATES FEW OR NO CLOUDS BELOW 12,000 FEET WITH NO
SIGNIFICANT WEATHER AND/OR OBSTRUCTIONS TO VISIBILITY.

* THESE STATIONS ARE NOT UNDER NWS QUALITY CONTROL. THEY ALSO MAY NOT
  REPORT WEATHER SUCH AS PRECIPITATION OR FOG.

ILZ005-006-012>014-019>023-280600-
NORTHEAST ILLINOIS

CITY           SKY/WX    TMP DP  RH WIND       PRES   REMARKS
OHARE          MOCLDY    65  55  70 N20       29.91R
MIDWAY         MOCLDY    67  58  72 N17G26    29.90R
AURORA         PTCLDY    65  59  81 N8        29.93R
LANSING*       CLOUDY    64  57  80 N9G28     29.90R
WAUKEGAN       CLOUDY    64  52  64 N12G21    29.91R
DUPAGE AIRPORT MOCLDY    65  58  78 N13       29.92R
WHEELING       CLOUDY    66  56  70 N15G21    29.93R
NORTHERLY IS     N/A     65  56  72 N16         N/A
$$

WIZ051-052-058>065-066-070>072-280600-
SOUTHEAST WISCONSIN

CITY           SKY/WX    TMP DP  RH WIND       PRES   REMARKS
MILWAUKEE      PTCLDY    63  53  70 N10       29.94R
KENOSHA*       CLOUDY    64  53  67 N12       29.93R
RACINE*        CLOUDY    63  53  70 N15       29.94R
$$

INZ001>003-010>013-019-020-280600-
NORTHWEST INDIANA

CITY           SKY/WX    TMP DP  RH WIND       PRES   REMARKS
GARY*          CLOUDY    65  60  84 N16G29    29.90S
MICHIGAN CITY* NOT AVBL
RENSSELAER*    NOT AVBL
VALPARAISO     CLOUDY    63  58  83 N14G25    29.88R
$$

LMZ740>746-280600-
SOUTHERN LAKE MICHIGAN

STATION/POSITION TIME  SKY/WX   TEMP WIND        PRES    VSBY
                                AIR  DIR/SP/G
                 (UTC)          (F)  (DEG/KT/KT) (MB)    (MI)
HARRISON CRIB    0400            62  350/ 29/ 36   N/A
BURNHAM HARBOR   0500            64  360/ 22       N/A
CALUMET HARBOR   0400            63  330/ 12/ 22 1011.4R
BURNS HARBOR     0500            65  360/ 22/ 27 1012.2R
MICHIGAN CITY    0400            64  330/ 30/ 35   N/A
$$

ABBREVIATIONS USED IN REMARKS
   TC - TEMPERATURE IN CELSIUS
  WCI - WIND CHILL INDEX
   HX - HEAT INDEX
  VSB - VISIBILITY
$$


USA.gov is the U.S. government's official web portal to all federal, state and local government web resources and services.